Wind_Speed
2 3 4 6 7 10 12 12 13 15 16 17 18 18 18 19 20 21 22 23 24 24 26 27 27 28 28 28 28 29 31 32 32 33 34 34 34 34 33 33 32 33 34 34
3 4 4 5 7 9 11 12 12 14 15 16 17 18 19 19 20 21 22 23 23 24 25 26 27 28 29 28 28 28 29 32 32 32 33 33 34 34 34 35 35 34 35 35
4 4 5 5 6 7 9 10 12 13 15 16 16 17 19 19 21 22 22 23 24 25 25 26 27 28 29 30 30 29 30 32 33 32 33 33 33 34 35 36 36 36 36 36
5 5 5 5 6 7 8 10 12 13 14 15 17 17 18 19 20 21 22 23 24 25 26 27 27 29 29 29 30 30 30 31 32 32 32 33 34 34 35 36 36 37 36 36
6 6 6 7 8 8 9 10 11 12 13 14 15 17 17 18 19 20 22 23 24 25 26 27 28 28 29 29 30 30 30 30 31 32 33 33 34 35 35 36 36 37 37 38
7 7 7 8 9 9 10 11 12 12 13 15 16 18 18 18 19 20 22 23 24 25 25 26 27 28 29 29 30 30 31 32 32 33 33 34 35 36 37 37 37 37 37 37
9 9 9 10 10 11 11 12 13 14 14 14 16 18 18 18 19 20 21 23 24 24 25 25 26 27 28 29 29 30 31 31 32 33 34 35 36 36 37 37 37 37 37 37
10 11 11 12 12 12 13 14 15 15 16 15 16 17 18 19 20 21 21 22 23 24 25 26 26 27 28 29 30 30 31 32 32 33 34 35 35 36 36 37 37 37 37 37
12 12 13 13 13 13 14 15 16 17 17 17 16 17 17 19 21 22 23 23 24 25 27 27 28 29 29 30 30 31 31 32 33 34 34 34 34 35 35 36 36 37 37 37
14 14 14 14 14 14 15 15 16 17 18 18 17 18 18 18 19 22 24 25 26 27 28 29 30 30 30 31 31 32 33 34 34 35 35 35 35 35 35 35 35 36 36 36
16 16 15 16 16 16 17 17 18 18 18 19 19 18 18 18 19 21 22 24 25 26 28 29 30 31 32 33 33 34 34 35 35 35 35 35 35 35 35 35 35 35 35 36
18 18 18 18 18 18 19 19 20 20 20 20 21 20 19 19 20 21 22 23 25 26 27 29 30 32 32 33 34 34 34 35 35 35 35 35 35 35 35 35 35 35 35 36
21 22 21 21 21 21 22 22 22 22 22 22 22 21 22 22 22 23 23 25 25 26 28 29 29 30 31 32 32 33 34 35 36 36 36 36 35 35 35 36 36 36 36 36
24 24 24 24 25 24 24 25 25 25 24 24 23 23 23 25 25 26 26 26 27 28 28 29 30 31 31 32 33 34 34 35 36 36 36 37 37 37 36 36 36 36 36 37
26 26 26 26 27 26 26 26 26 27 26 27 25 26 25 26 27 28 28 28 29 30 30 31 31 32 32 33 34 35 36 36 37 37 37 37 38 38 38 37 37 37 38 37
30 30 29 28 29 29 28 27 28 28 28 29 28 28 27 28 28 29 29 30 30 31 32 32 33 33 33 34 35 36 37 38 38 38 38 38 38 39 39 39 38 38 37 37
33 33 33 32 32 32 31 29 29 30 30 30 30 29 30 30 30 31 31 31 31 32 33 34 34 34 34 35 35 36 37 38 38 39 38 38 39 39 39 39 39 39 38 39
36 36 36 36 36 35 33 32 32 32 32 32 32 32 32 32 32 32 33 33 33 33 34 34 34 35 35 36 36 36 37 37 38 38 38 39 39 39 40 40 40 39 39 39
38 38 39 39 40 39 36 35 35 35 34 34 34 34 33 34 34 33 33 34 34 34 34 35 36 36 36 37 37 37 37 37 38 38 39 39 39 39 39 39 39 39 40 40
40 40 41 41 42 42 39 38 37 38 37 35 35 35 35 34 35 34 34 35 35 36 36 36 36 37 37 37 37 37 37 38 38 39 39 39 40 40 40 40 40 40 40 41
42 42 42 43 43 43 41 40 39 38 37 37 37 37 36 36 36 36 36 36 36 36 37 37 38 38 39 39 39 39 39 39 40 40 40 40 40 40 40 40 40 40 41 42
44 44 43 43 44 43 41 41 40 40 39 39 39 38 38 37 37 37 38 38 38 37 38 38 39 39 39 40 40 40 40 41 41 41 40 41 41 41 41 41 41 41 42 42
46 46 45 46 45 44 43 43 42 42 42 42 41 41 40 39 39 40 40 40 39 39 39 40 40 40 41 41 42 41 42 42 41 41 41 41 42 42 42 42 42 42 42 41
48 47 48 48 46 45 44 44 44 44 44 44 44 44 43 43 43 43 43 43 43 42 42 42 43 42 43 43 43 43 43 43 42 42 42 42 42 42 42 42 42 42 43 42
48 48 49 49 47 47 46 46 46 46 46 45 46 46 46 46 46 45 45 45 44 44 44 44 44 45 45 45 45 44 44 43 43 43 43 43 43 43 43 42 42 43 43 42
46 47 48 48 47 48 47 47 48 48 47 47 47 46 47 47 47 47 46 45 45 45 45 45 46 46 46 46 46 45 45 43 43 42 43 43 43 43 43 43 42 42 42 42
Wind_Direction
336 295 276 259 250 246 245 248 251 251 248 245 246 247 246 247 248 245 243 241 241 242 240 240 242 244 245 247 247 247 247 247 249 250 251 252 255 257 258 260 263 265 267 269
334 312 305 289 270 259 253 255 257 256 256 252 249 249 249 250 250 248 246 244 243 244 243 244 244 245 246 247 247 250 249 248 250 252 253 254 256 257 258 260 263 265 268 270
344 330 318 300 285 274 269 265 262 260 256 255 253 249 251 251 252 251 250 247 245 247 248 248 247 247 249 249 250 253 252 250 252 254 255 255 258 261 263 264 266 268 270 271
349 340 332 321 305 295 287 281 274 268 261 258 256 254 252 253 254 253 252 250 249 251 252 251 251 249 251 252 253 255 255 254 254 256 257 258 260 264 266 267 269 271 272 274
339 329 325 320 313 307 303 296 286 278 270 264 261 260 257 257 256 255 253 253 253 253 255 254 253 252 253 254 255 257 257 257 257 259 260 261 264 265 268 270 272 273 274 276
334 325 319 317 315 312 310 304 296 287 279 272 267 265 262 262 261 258 256 255 255 254 254 254 253 253 254 256 256 257 258 259 260 262 263 264 266 268 270 272 273 275 276 277
326 322 317 314 315 314 313 309 304 297 288 280 274 268 266 264 262 259 257 256 255 254 254 254 255 255 256 257 258 259 260 262 263 265 266 267 268 269 270 271 273 274 276 277
318 316 314 311 312 312 312 311 305 300 295 288 283 278 272 268 266 261 258 257 256 255 255 256 257 258 258 258 259 261 262 264 265 267 268 269 270 270 270 271 272 273 275 276
314 313 311 308 307 307 308 307 303 300 297 293 289 285 280 274 268 264 261 259 258 257 256 256 257 258 259 260 261 262 263 264 266 268 269 269 270 271 271 272 272 273 275 277
310 309 309 308 307 307 307 307 306 303 301 297 295 293 289 282 274 269 266 264 261 259 258 258 258 259 261 261 262 263 264 265 267 268 269 269 269 270 271 271 272 273 274 276
304 305 306 305 304 304 303 302 302 300 298 297 297 295 294 287 281 276 272 267 263 261 260 260 260 261 262 262 263 264 265 267 268 268 269 269 270 271 272 272 272 273 274 275
302 301 302 302 301 299 298 298 297 296 295 295 295 295 293 289 284 280 275 272 269 267 265 265 264 264 264 264 264 265 266 267 268 269 269 270 270 271 272 273 273 274 275 275
299 299 298 298 296 295 294 293 292 291 291 291 292 292 291 289 285 281 277 274 273 271 269 267 266 265 264 264 265 266 267 268 268 269 270 271 271 272 272 273 274 275 275 275
295 295 294 294 294 293 291 290 289 289 289 289 289 289 288 287 284 281 278 275 274 272 271 270 268 266 265 265 266 267 268 269 270 270 270 271 272 273 274 275 275 276 275 275
291 290 290 290 290 290 289 288 288 288 288 288 287 286 286 284 282 280 279 277 275 273 272 271 271 270 269 268 269 269 270 270 271 271 271 271 271 273 274 275 275 276 276 275
288 288 287 287 287 288 287 287 287 287 288 288 286 285 284 282 281 280 280 279 277 275 274 274 272 272 272 271 270 271 270 270 271 272 272 271 272 273 273 274 275 275 275 274
287 287 287 287 287 286 287 288 287 287 287 286 285 283 281 281 281 281 281 281 279 277 276 275 274 273 273 273 272 271 271 272 271 271 271 271 273 273 273 274 274 275 275 275
285 285 286 287 286 285 288 287 286 286 285 285 284 283 282 281 280 280 280 280 279 278 276 274 274 274 274 274 274 273 273 273 273 273 273 273 274 275 274 274 274 274 275 276
283 283 284 284 285 285 286 287 286 285 285 285 284 283 281 280 279 279 279 279 278 278 277 275 275 275 276 276 275 275 275 275 275 274 275 275 276 275 275 275 275 275 275 277
281 281 282 284 285 286 287 286 286 285 285 285 284 283 282 281 280 279 279 280 280 279 279 278 277 276 277 277 276 276 276 276 276 276 276 276 276 276 275 275 275 275 276 278
280 280 282 283 284 286 287 287 286 285 286 285 284 283 283 282 281 280 279 279 279 279 279 279 277 277 277 278 278 278 278 277 277 277 276 276 276 276 275 275 276 276 277 278
279 280 281 282 283 285 285 284 284 284 284 284 284 283 282 281 280 279 279 279 279 279 279 279 279 278 278 278 279 279 279 278 277 276 276 276 276 276 275 275 276 277 278 279
278 279 280 280 281 282 282 282 281 280 281 281 281 280 280 279 278 277 278 278 278 279 279 280 279 279 279 279 280 280 279 279 278 277 276 276 276 276 276 276 276 277 278 279
276 277 277 278 279 278 278 278 278 277 277 278 278 278 277 277 277 277 276 277 277 278 278 279 279 279 279 280 280 280 279 279 278 277 276 276 276 275 276 277 277 277 277 278
276 276 276 275 276 275 275 275 274 274 275 275 276 276 277 277 277 277 277 277 277 278 278 279 279 279 279 279 279 279 279 279 278 277 276 276 275 275 275 276 276 277 277 276
275 274 274 274 273 273 273 273 272 273 274 275 276 277 278 278 278 278 277 277 278 278 279 279 279 278 278 278 278 278 278 278 278 277 276 276 275 275 275 276 276 277 277 276
Height
5730 5731 5730 5731 5731 5732 5733 5734 5735 5736 5736 5738 5739 5741 5742 5743 5744 5746 5747 5749 5750 5752 5754 5755 5757 5758 5760 5761 5762 5763 5764 5765 5767 5768 5769 5770 5771 5771 5772 5772 5772 5772 5772 5772
5731 5731 5731 5730 5730 5731 5731 5732 5733 5734 5734 5736 5737 5738 5738 5739 5740 5742 5743 5744 5745 5747 5749 5750 5751 5752 5754 5755 5756 5756 5757 5758 5760 5761 5761 5762 5763 5764 5764 5764 5764 5764 5764 5763
5731 5731 5730 5730 5730 5730 5730 5730 5730 5731 5732 5732 5733 5735 5735 5736 5736 5737 5739 5740 5741 5742 5743 5744 5745 5746 5748 5749 5750 5750 5751 5752 5753 5754 5754 5755 5756 5756 5756 5756 5756 5756 5755 5755
5731 5730 5730 5729 5729 5729 5729 5728 5728 5728 5728 5729 5730 5731 5732 5732 5732 5733 5734 5735 5736 5737 5738 5739 5740 5741 5742 5742 5743 5744 5745 5746 5747 5747 5748 5748 5748 5748 5748 5748 5747 5747 5746 5746
5731 5730 5729 5728 5728 5727 5727 5726 5726 5725 5725 5726 5726 5726 5728 5727 5728 5729 5729 5730 5731 5732 5732 5733 5734 5735 5735 5736 5737 5738 5738 5739 5740 5740 5740 5740 5740 5740 5740 5740 5739 5739 5738 5737
5731 5729 5728 5727 5726 5725 5724 5724 5723 5722 5722 5722 5722 5722 5723 5723 5723 5724 5724 5724 5725 5726 5727 5727 5728 5729 5729 5730 5730 5731 5731 5732 5732 5732 5732 5732 5732 5732 5732 5731 5730 5730 5729 5728
5730 5728 5727 5726 5724 5723 5722 5721 5720 5718 5717 5718 5717 5717 5719 5718 5718 5718 5718 5718 5719 5720 5721 5721 5722 5722 5723 5723 5723 5724 5724 5725 5725 5725 5724 5724 5724 5724 5723 5722 5722 5721 5720 5720
5728 5727 5725 5723 5722 5720 5719 5718 5717 5715 5714 5713 5713 5712 5714 5713 5712 5712 5712 5712 5713 5713 5714 5715 5715 5716 5716 5716 5716 5717 5717 5717 5717 5716 5716 5715 5715 5715 5714 5713 5713 5712 5711 5711
5725 5725 5723 5721 5719 5718 5716 5714 5712 5711 5709 5708 5708 5708 5708 5707 5706 5706 5706 5706 5706 5707 5707 5708 5708 5708 5709 5709 5709 5709 5709 5709 5708 5708 5707 5707 5706 5706 5705 5705 5704 5703 5702 5702
5722 5721 5720 5718 5716 5715 5713 5710 5708 5706 5704 5703 5703 5703 5703 5701 5700 5700 5700 5699 5699 5700 5700 5700 5700 5700 5701 5701 5701 5701 5701 5700 5700 5699 5699 5698 5697 5697 5696 5695 5695 5694 5693 5692
5719 5718 5717 5715 5713 5711 5709 5707 5703 5701 5700 5699 5697 5700 5697 5696 5694 5693 5693 5692 5692 5692 5692 5692 5692 5692 5692 5692 5692 5692 5692 5691 5691 5690 5690 5689 5688 5688 5687 5686 5685 5684 5683 5683
5714 5713 5711 5710 5708 5706 5704 5702 5699 5698 5696 5693 5692 5695 5691 5689 5688 5687 5686 5685 5684 5684 5684 5684 5683 5683 5683 5683 5683 5682 5682 5682 5681 5681 5680 5680 5679 5678 5677 5677 5676 5675 5674 5673
5709 5707 5706 5705 5705 5701 5698 5696 5694 5692 5690 5688 5687 5689 5684 5683 5681 5680 5679 5678 5677 5676 5676 5675 5675 5674 5674 5674 5674 5673 5673 5672 5672 5671 5671 5670 5669 5669 5668 5667 5666 5665 5664 5663
5703 5701 5700 5699 5696 5694 5692 5690 5688 5685 5683 5682 5681 5680 5678 5675 5673 5672 5671 5670 5669 5668 5667 5667 5666 5665 5665 5665 5664 5664 5663 5662 5662 5661 5660 5660 5659 5658 5657 5657 5656 5654 5653 5652
5695 5694 5693 5691 5688 5686 5685 5683 5681 5678 5676 5674 5674 5672 5671 5667 5665 5664 5663 5661 5660 5659 5659 5658 5657 5656 5655 5655 5654 5653 5653 5652 5651 5651 5650 5649 5648 5647 5646 5646 5645 5644 5643 5641
5687 5685 5684 5683 5681 5678 5676 5675 5673 5670 5668 5666 5664 5664 5662 5659 5657 5656 5654 5653 5652 5651 5649 5648 5647 5646 5645 5645 5644 5643 5642 5641 5640 5640 5639 5638 5637 5636 5635 5634 5633 5632 5631 5630
5678 5676 5674 5673 5672 5669 5668 5668 5665 5662 5660 5657 5655 5655 5652 5650 5648 5647 5645 5644 5642 5641 5639 5638 5637 5636 5635 5634 5633 5633 5632 5630 5629 5628 5627 5626 5626 5625 5623 5622 5622 5621 5620 5619
5669 5666 5663 5662 5661 5659 5662 5658 5655 5652 5651 5648 5646 5644 5642 5640 5639 5637 5636 5634 5632 5630 5629 5628 5626 5625 5624 5623 5622 5621 5620 5619 5618 5617 5616 5615 5614 5613 5612 5611 5610 5609 5608 5607
5658 5655 5652 5650 5648 5647 5649 5647 5643 5641 5640 5638 5635 5633 5632 5630 5628 5627 5625 5623 5622 5620 5619 5617 5616 5614 5613 5612 5610 5609 5608 5607 5606 5605 5604 5603 5602 5601 5600 5599 5598 5597 5596 5595
5646 5644 5642 5639 5635 5635 5638 5635 5631 5629 5629 5627 5624 5622 5620 5619 5618 5617 5614 5612 5611 5609 5608 5606 5605 5603 5602 5600 5599 5598 5597 5595 5594 5593 5592 5591 5590 5589 5588 5587 5586 5585 5584 5582
5634 5631 5629 5626 5623 5623 5624 5621 5618 5618 5618 5615 5612 5610 5609 5607 5606 5605 5602 5601 5599 5598 5596 5594 5593 5591 5590 5588 5587 5586 5584 5583 5582 5581 5579 5578 5577 5576 5575 5574 5573 5572 5571 5570
5620 5618 5617 5614 5611 5614 5610 5607 5606 5604 5603 5601 5599 5598 5597 5595 5594 5592 5590 5589 5587 5586 5584 5582 5581 5579 5577 5576 5574 5573 5572 5570 5569 5568 5567 5565 5564 5563 5562 5561 5560 5559 5558 5557
5606 5606 5603 5601 5602 5599 5596 5594 5592 5591 5589 5588 5586 5585 5584 5582 5581 5580 5578 5576 5575 5573 5571 5570 5568 5567 5565 5563 5561 5560 5559 5557 5556 5555 5554 5552 5551 5550 5549 5548 5547 5546 5544 5543
5592 5591 5588 5586 5586 5585 5582 5580 5578 5577 5575 5574 5572 5571 5570 5568 5567 5566 5565 5563 5562 5560 5558 5557 5555 5553 5552 5550 5548 5546 5545 5543 5542 5541 5540 5539 5538 5537 5536 5534 5533 5532 5531 5530
5578 5575 5572 5570 5571 5569 5568 5565 5564 5562 5561 5560 5558 5557 5555 5554 5553 5552 5551 5549 5547 5546 5545 5543 5541 5540 5538 5536 5534 5532 5531 5530 5529 5528 5527 5525 5524 5523 5522 5521 5520 5519 5518 5516
5564 5560 5557 5556 5555 5552 5553 5551 5549 5547 5547 5545 5544 5543 5541 5539 5538 5537 5536 5535 5533 5532 5530 5529 5527 5525 5524 5522 5520 5518 5517 5516 5515 5514 5513 5512 5511 5510 5509 5508 5507 5505 5504 5503